owner,sensor,date,latitude,longitude,air_temperature,qcFlag 
COMPS,ioos:station:USF.COMPS:FHP:1,2016-11-01T00:00:00Z,28.1530,-82.8010,25.97,1111122 
COMPS,ioos:station:USF.COMPS:FHP:1,2016-11-01T00:06:00Z,28.1530,-82.8010,25.82,1111122 
COMPS,ioos:station:USF.COMPS:FHP:1,2016-11-01T00:12:00Z,28.1530,-82.8010,25.65,1111122 
COMPS,ioos:station:USF.COMPS:FHP:1,2016-11-01T00:18:00Z,28.1530,-82.8010,25.52,1111122 
COMPS,ioos:station:USF.COMPS:FHP:1,2016-11-01T00:24:00Z,28.1530,-82.8010,25.39,1111122 
COMPS,ioos:station:USF.COMPS:FHP:1,2016-11-01T00:30:00Z,28.1530,-82.8010,25.27,1111122 
COMPS,ioos:station:USF.COMPS:FHP:1,2016-11-01T00:36:00Z,28.1530,-82.8010,25.12,1111122 
COMPS,ioos:station:USF.COMPS:FHP:1,2016-11-01T00:42:00Z,28.1530,-82.8010,25.0,1111122 
COMPS,ioos:station:USF.COMPS:FHP:1,2016-11-01T00:48:00Z,28.1530,-82.8010,24.94,1111122 
COMPS,ioos:station:USF.COMPS:FHP:1,2016-11-01T00:54:00Z,28.1530,-82.8010,24.81,1111122 
COMPS,ioos:station:USF.COMPS:FHP:1,2016-11-01T01:00:00Z,28.1530,-82.8010,24.66,1111122 
COMPS,ioos:station:USF.COMPS:FHP:1,2016-11-01T01:06:00Z,28.1530,-82.8010,24.5,1111122 
COMPS,ioos:station:USF.COMPS:FHP:1,2016-11-01T01:12:00Z,28.1530,-82.8010,24.47,1111122 
COMPS,ioos:station:USF.COMPS:FHP:1,2016-11-01T01:18:00Z,28.1530,-82.8010,24.36,1111122 
COMPS,ioos:station:USF.COMPS:FHP:1,2016-11-01T01:24:00Z,28.1530,-82.8010,24.27,1111122 
COMPS,ioos:station:USF.COMPS:FHP:1,2016-11-01T01:30:00Z,28.1530,-82.8010,24.21,1111122 
COMPS,ioos:station:USF.COMPS:FHP:1,2016-11-01T01:36:00Z,28.1530,-82.8010,24.09,1111122 
COMPS,ioos:station:USF.COMPS:FHP:1,2016-11-01T01:42:00Z,28.1530,-82.8010,24.06,1111122 
COMPS,ioos:station:USF.COMPS:FHP:1,2016-11-01T01:48:00Z,28.1530,-82.8010,23.95,1111122 
COMPS,ioos:station:USF.COMPS:FHP:1,2016-11-01T01:54:00Z,28.1530,-82.8010,23.85,1111122 
COMPS,ioos:station:USF.COMPS:FHP:1,2016-11-01T02:00:00Z,28.1530,-82.8010,23.82,1111122 
COMPS,ioos:station:USF.COMPS:FHP:1,2016-11-01T02:06:00Z,28.1530,-82.8010,23.72,1111122 
COMPS,ioos:station:USF.COMPS:FHP:1,2016-11-01T02:12:00Z,28.1530,-82.8010,23.68,1111122 
COMPS,ioos:station:USF.COMPS:FHP:1,2016-11-01T02:18:00Z,28.1530,-82.8010,23.57,1111122 
COMPS,ioos:station:USF.COMPS:FHP:1,2016-11-01T02:24:00Z,28.1530,-82.8010,23.5,1111122 
COMPS,ioos:station:USF.COMPS:FHP:1,2016-11-01T02:30:00Z,28.1530,-82.8010,23.43,1111122 
COMPS,ioos:station:USF.COMPS:FHP:1,2016-11-01T02:36:00Z,28.1530,-82.8010,23.3,1111122 
COMPS,ioos:station:USF.COMPS:FHP:1,2016-11-01T02:42:00Z,28.1530,-82.8010,23.21,1111122 
COMPS,ioos:station:USF.COMPS:FHP:1,2016-11-01T02:48:00Z,28.1530,-82.8010,23.14,1111122 
COMPS,ioos:station:USF.COMPS:FHP:1,2016-11-01T02:54:00Z,28.1530,-82.8010,23.01,1111122 
COMPS,ioos:station:USF.COMPS:FHP:1,2016-11-01T03:00:00Z,28.1530,-82.8010,22.97,1111122 
COMPS,ioos:station:USF.COMPS:FHP:1,2016-11-01T03:06:00Z,28.1530,-82.8010,22.87,1111122 
COMPS,ioos:station:USF.COMPS:FHP:1,2016-11-01T03:12:00Z,28.1530,-82.8010,22.77,1111122 
COMPS,ioos:station:USF.COMPS:FHP:1,2016-11-01T03:18:00Z,28.1530,-82.8010,22.73,1111122 
COMPS,ioos:station:USF.COMPS:FHP:1,2016-11-01T03:24:00Z,28.1530,-82.8010,22.57,1111122 
COMPS,ioos:station:USF.COMPS:FHP:1,2016-11-01T03:30:00Z,28.1530,-82.8010,22.55,1111122 
COMPS,ioos:station:USF.COMPS:FHP:1,2016-11-01T03:36:00Z,28.1530,-82.8010,22.54,1111122 
COMPS,ioos:station:USF.COMPS:FHP:1,2016-11-01T03:42:00Z,28.1530,-82.8010,22.51,1111122 
COMPS,ioos:station:USF.COMPS:FHP:1,2016-11-01T03:48:00Z,28.1530,-82.8010,22.41,1111122 
COMPS,ioos:station:USF.COMPS:FHP:1,2016-11-01T03:54:00Z,28.1530,-82.8010,22.33,1111122 
COMPS,ioos:station:USF.COMPS:FHP:1,2016-11-01T04:00:00Z,28.1530,-82.8010,22.2,1111122 
COMPS,ioos:station:USF.COMPS:FHP:1,2016-11-01T04:06:00Z,28.1530,-82.8010,22.08,1111122 
COMPS,ioos:station:USF.COMPS:FHP:1,2016-11-01T04:12:00Z,28.1530,-82.8010,22.02,1111122 
COMPS,ioos:station:USF.COMPS:FHP:1,2016-11-01T04:18:00Z,28.1530,-82.8010,21.93,1111122 
COMPS,ioos:station:USF.COMPS:FHP:1,2016-11-01T04:24:00Z,28.1530,-82.8010,21.8,1111122 
COMPS,ioos:station:USF.COMPS:FHP:1,2016-11-01T04:30:00Z,28.1530,-82.8010,21.71,1111122 
COMPS,ioos:station:USF.COMPS:FHP:1,2016-11-01T04:36:00Z,28.1530,-82.8010,21.61,1111122 
COMPS,ioos:station:USF.COMPS:FHP:1,2016-11-01T04:42:00Z,28.1530,-82.8010,21.54,1111122 
COMPS,ioos:station:USF.COMPS:FHP:1,2016-11-01T04:48:00Z,28.1530,-82.8010,21.4,1111122 
COMPS,ioos:station:USF.COMPS:FHP:1,2016-11-01T04:54:00Z,28.1530,-82.8010,21.41,1111122 
COMPS,ioos:station:USF.COMPS:FHP:1,2016-11-01T05:00:00Z,28.1530,-82.8010,21.32,1111122 
COMPS,ioos:station:USF.COMPS:FHP:1,2016-11-01T05:06:00Z,28.1530,-82.8010,21.3,1111122 
COMPS,ioos:station:USF.COMPS:FHP:1,2016-11-01T05:12:00Z,28.1530,-82.8010,21.22,1111122 
COMPS,ioos:station:USF.COMPS:FHP:1,2016-11-01T05:18:00Z,28.1530,-82.8010,21.13,1111122 
COMPS,ioos:station:USF.COMPS:FHP:1,2016-11-01T05:24:00Z,28.1530,-82.8010,21.08,1111122 
COMPS,ioos:station:USF.COMPS:FHP:1,2016-11-01T05:30:00Z,28.1530,-82.8010,21.08,1111122 
COMPS,ioos:station:USF.COMPS:FHP:1,2016-11-01T05:36:00Z,28.1530,-82.8010,21.02,1111122 
COMPS,ioos:station:USF.COMPS:FHP:1,2016-11-01T05:42:00Z,28.1530,-82.8010,20.96,1111122 
COMPS,ioos:station:USF.COMPS:FHP:1,2016-11-01T05:48:00Z,28.1530,-82.8010,20.84,1111122 
COMPS,ioos:station:USF.COMPS:FHP:1,2016-11-01T05:54:00Z,28.1530,-82.8010,20.76,1111122 
COMPS,ioos:station:USF.COMPS:FHP:1,2016-11-01T06:00:00Z,28.1530,-82.8010,20.68,1111122 
COMPS,ioos:station:USF.COMPS:FHP:1,2016-11-01T06:06:00Z,28.1530,-82.8010,20.69,1111122 
COMPS,ioos:station:USF.COMPS:FHP:1,2016-11-01T06:12:00Z,28.1530,-82.8010,20.56,1111122 
COMPS,ioos:station:USF.COMPS:FHP:1,2016-11-01T06:18:00Z,28.1530,-82.8010,20.46,1111122 
COMPS,ioos:station:USF.COMPS:FHP:1,2016-11-01T06:24:00Z,28.1530,-82.8010,20.42,1111122 
COMPS,ioos:station:USF.COMPS:FHP:1,2016-11-01T06:30:00Z,28.1530,-82.8010,20.4,1111122 
COMPS,ioos:station:USF.COMPS:FHP:1,2016-11-01T06:36:00Z,28.1530,-82.8010,20.32,1111122 
COMPS,ioos:station:USF.COMPS:FHP:1,2016-11-01T06:42:00Z,28.1530,-82.8010,20.3,1111122 
COMPS,ioos:station:USF.COMPS:FHP:1,2016-11-01T06:48:00Z,28.1530,-82.8010,20.22,1111122 
COMPS,ioos:station:USF.COMPS:FHP:1,2016-11-01T06:54:00Z,28.1530,-82.8010,20.19,1111122 
COMPS,ioos:station:USF.COMPS:FHP:1,2016-11-01T07:00:00Z,28.1530,-82.8010,20.17,1111122 
COMPS,ioos:station:USF.COMPS:FHP:1,2016-11-01T07:06:00Z,28.1530,-82.8010,20.18,1111122 
COMPS,ioos:station:USF.COMPS:FHP:1,2016-11-01T07:12:00Z,28.1530,-82.8010,20.1,1111122 
COMPS,ioos:station:USF.COMPS:FHP:1,2016-11-01T07:18:00Z,28.1530,-82.8010,20.05,1111122 
COMPS,ioos:station:USF.COMPS:FHP:1,2016-11-01T07:24:00Z,28.1530,-82.8010,20.04,1111122 
COMPS,ioos:station:USF.COMPS:FHP:1,2016-11-01T07:30:00Z,28.1530,-82.8010,19.89,1111122 
COMPS,ioos:station:USF.COMPS:FHP:1,2016-11-01T07:36:00Z,28.1530,-82.8010,19.88,1111122 
COMPS,ioos:station:USF.COMPS:FHP:1,2016-11-01T07:42:00Z,28.1530,-82.8010,19.83,1111122 
COMPS,ioos:station:USF.COMPS:FHP:1,2016-11-01T07:48:00Z,28.1530,-82.8010,19.87,1111122 
COMPS,ioos:station:USF.COMPS:FHP:1,2016-11-01T07:54:00Z,28.1530,-82.8010,19.89,1111122 
COMPS,ioos:station:USF.COMPS:FHP:1,2016-11-01T08:00:00Z,28.1530,-82.8010,19.89,1111122 
COMPS,ioos:station:USF.COMPS:FHP:1,2016-11-01T08:06:00Z,28.1530,-82.8010,19.87,1111122 
COMPS,ioos:station:USF.COMPS:FHP:1,2016-11-01T08:12:00Z,28.1530,-82.8010,19.86,1111122 
COMPS,ioos:station:USF.COMPS:FHP:1,2016-11-01T08:18:00Z,28.1530,-82.8010,19.85,1111122 
COMPS,ioos:station:USF.COMPS:FHP:1,2016-11-01T08:24:00Z,28.1530,-82.8010,19.86,1111122 
COMPS,ioos:station:USF.COMPS:FHP:1,2016-11-01T08:30:00Z,28.1530,-82.8010,19.81,1111122 
COMPS,ioos:station:USF.COMPS:FHP:1,2016-11-01T08:36:00Z,28.1530,-82.8010,19.84,1111122 
COMPS,ioos:station:USF.COMPS:FHP:1,2016-11-01T08:42:00Z,28.1530,-82.8010,19.84,1111122 
COMPS,ioos:station:USF.COMPS:FHP:1,2016-11-01T08:48:00Z,28.1530,-82.8010,19.82,1111122 
COMPS,ioos:station:USF.COMPS:FHP:1,2016-11-01T08:54:00Z,28.1530,-82.8010,19.87,1111122 
COMPS,ioos:station:USF.COMPS:FHP:1,2016-11-01T09:00:00Z,28.1530,-82.8010,19.85,1111122 
COMPS,ioos:station:USF.COMPS:FHP:1,2016-11-01T09:06:00Z,28.1530,-82.8010,19.85,1111122 
COMPS,ioos:station:USF.COMPS:FHP:1,2016-11-01T09:12:00Z,28.1530,-82.8010,19.86,1111122 
COMPS,ioos:station:USF.COMPS:FHP:1,2016-11-01T09:18:00Z,28.1530,-82.8010,19.8,1111122 
COMPS,ioos:station:USF.COMPS:FHP:1,2016-11-01T09:24:00Z,28.1530,-82.8010,19.68,1111122 
COMPS,ioos:station:USF.COMPS:FHP:1,2016-11-01T09:30:00Z,28.1530,-82.8010,19.52,1111122 
COMPS,ioos:station:USF.COMPS:FHP:1,2016-11-01T09:36:00Z,28.1530,-82.8010,19.51,1111122 
COMPS,ioos:station:USF.COMPS:FHP:1,2016-11-01T09:42:00Z,28.1530,-82.8010,19.47,1111122 
COMPS,ioos:station:USF.COMPS:FHP:1,2016-11-01T09:48:00Z,28.1530,-82.8010,19.43,1111122 
COMPS,ioos:station:USF.COMPS:FHP:1,2016-11-01T09:54:00Z,28.1530,-82.8010,19.45,1111122 
COMPS,ioos:station:USF.COMPS:FHP:1,2016-11-01T10:00:00Z,28.1530,-82.8010,19.49,1111122 
COMPS,ioos:station:USF.COMPS:FHP:1,2016-11-01T10:06:00Z,28.1530,-82.8010,19.39,1111122 
COMPS,ioos:station:USF.COMPS:FHP:1,2016-11-01T10:12:00Z,28.1530,-82.8010,19.38,1111122 
COMPS,ioos:station:USF.COMPS:FHP:1,2016-11-01T10:18:00Z,28.1530,-82.8010,19.34,1111122 
COMPS,ioos:station:USF.COMPS:FHP:1,2016-11-01T10:24:00Z,28.1530,-82.8010,19.31,1111122 
COMPS,ioos:station:USF.COMPS:FHP:1,2016-11-01T10:30:00Z,28.1530,-82.8010,19.29,1111122 
COMPS,ioos:station:USF.COMPS:FHP:1,2016-11-01T10:36:00Z,28.1530,-82.8010,19.33,1111122 
COMPS,ioos:station:USF.COMPS:FHP:1,2016-11-01T10:42:00Z,28.1530,-82.8010,19.3,1111122 
COMPS,ioos:station:USF.COMPS:FHP:1,2016-11-01T10:48:00Z,28.1530,-82.8010,19.29,1111122 
COMPS,ioos:station:USF.COMPS:FHP:1,2016-11-01T10:54:00Z,28.1530,-82.8010,19.27,1111122 
COMPS,ioos:station:USF.COMPS:FHP:1,2016-11-01T11:00:00Z,28.1530,-82.8010,19.25,1111122 
COMPS,ioos:station:USF.COMPS:FHP:1,2016-11-01T11:06:00Z,28.1530,-82.8010,19.21,1111122 
COMPS,ioos:station:USF.COMPS:FHP:1,2016-11-01T11:12:00Z,28.1530,-82.8010,19.21,1111122 
COMPS,ioos:station:USF.COMPS:FHP:1,2016-11-01T11:18:00Z,28.1530,-82.8010,19.22,1111122 
COMPS,ioos:station:USF.COMPS:FHP:1,2016-11-01T11:24:00Z,28.1530,-82.8010,19.19,1111122 
COMPS,ioos:station:USF.COMPS:FHP:1,2016-11-01T11:30:00Z,28.1530,-82.8010,19.12,1111122 
COMPS,ioos:station:USF.COMPS:FHP:1,2016-11-01T11:36:00Z,28.1530,-82.8010,19.08,1111122 
COMPS,ioos:station:USF.COMPS:FHP:1,2016-11-01T11:42:00Z,28.1530,-82.8010,19.07,1111122 
COMPS,ioos:station:USF.COMPS:FHP:1,2016-11-01T11:48:00Z,28.1530,-82.8010,19.11,1111122 
COMPS,ioos:station:USF.COMPS:FHP:1,2016-11-01T11:54:00Z,28.1530,-82.8010,19.11,1111122 
COMPS,ioos:station:USF.COMPS:FHP:1,2016-11-01T12:00:00Z,28.1530,-82.8010,19.17,1111122 
COMPS,ioos:station:USF.COMPS:FHP:1,2016-11-01T12:06:00Z,28.1530,-82.8010,19.15,1111122 
COMPS,ioos:station:USF.COMPS:FHP:1,2016-11-01T12:12:00Z,28.1530,-82.8010,19.16,1111122 
COMPS,ioos:station:USF.COMPS:FHP:1,2016-11-01T12:18:00Z,28.1530,-82.8010,19.2,1111122 
COMPS,ioos:station:USF.COMPS:FHP:1,2016-11-01T12:24:00Z,28.1530,-82.8010,19.26,1111122 
COMPS,ioos:station:USF.COMPS:FHP:1,2016-11-01T12:30:00Z,28.1530,-82.8010,19.36,1111122 
COMPS,ioos:station:USF.COMPS:FHP:1,2016-11-01T12:36:00Z,28.1530,-82.8010,19.44,1111122 
COMPS,ioos:station:USF.COMPS:FHP:1,2016-11-01T12:42:00Z,28.1530,-82.8010,19.56,1111122 
COMPS,ioos:station:USF.COMPS:FHP:1,2016-11-01T12:48:00Z,28.1530,-82.8010,19.7,1111122 
COMPS,ioos:station:USF.COMPS:FHP:1,2016-11-01T12:54:00Z,28.1530,-82.8010,19.95,1111122 
COMPS,ioos:station:USF.COMPS:FHP:1,2016-11-01T13:00:00Z,28.1530,-82.8010,20.22,1111122 
COMPS,ioos:station:USF.COMPS:FHP:1,2016-11-01T13:06:00Z,28.1530,-82.8010,20.46,1111122 
COMPS,ioos:station:USF.COMPS:FHP:1,2016-11-01T13:12:00Z,28.1530,-82.8010,20.77,1111122 
COMPS,ioos:station:USF.COMPS:FHP:1,2016-11-01T13:18:00Z,28.1530,-82.8010,21.01,1111122 
COMPS,ioos:station:USF.COMPS:FHP:1,2016-11-01T13:24:00Z,28.1530,-82.8010,21.27,1111122 
COMPS,ioos:station:USF.COMPS:FHP:1,2016-11-01T13:30:00Z,28.1530,-82.8010,21.47,1111122 
COMPS,ioos:station:USF.COMPS:FHP:1,2016-11-01T13:36:00Z,28.1530,-82.8010,21.72,1111122 
COMPS,ioos:station:USF.COMPS:FHP:1,2016-11-01T13:42:00Z,28.1530,-82.8010,21.91,1111122 
COMPS,ioos:station:USF.COMPS:FHP:1,2016-11-01T13:48:00Z,28.1530,-82.8010,22.18,1111122 
COMPS,ioos:station:USF.COMPS:FHP:1,2016-11-01T13:54:00Z,28.1530,-82.8010,22.45,1111122 
COMPS,ioos:station:USF.COMPS:FHP:1,2016-11-01T14:00:00Z,28.1530,-82.8010,22.7,1111122 
COMPS,ioos:station:USF.COMPS:FHP:1,2016-11-01T14:06:00Z,28.1530,-82.8010,23.01,1111122 
COMPS,ioos:station:USF.COMPS:FHP:1,2016-11-01T14:12:00Z,28.1530,-82.8010,23.3,1111122 
COMPS,ioos:station:USF.COMPS:FHP:1,2016-11-01T14:18:00Z,28.1530,-82.8010,23.38,1111122 
COMPS,ioos:station:USF.COMPS:FHP:1,2016-11-01T14:24:00Z,28.1530,-82.8010,23.54,1111122 
COMPS,ioos:station:USF.COMPS:FHP:1,2016-11-01T14:30:00Z,28.1530,-82.8010,23.89,1111122 
COMPS,ioos:station:USF.COMPS:FHP:1,2016-11-01T14:36:00Z,28.1530,-82.8010,23.87,1111122 
COMPS,ioos:station:USF.COMPS:FHP:1,2016-11-01T14:42:00Z,28.1530,-82.8010,23.89,1111122 
COMPS,ioos:station:USF.COMPS:FHP:1,2016-11-01T14:48:00Z,28.1530,-82.8010,24.41,1111122 
COMPS,ioos:station:USF.COMPS:FHP:1,2016-11-01T14:54:00Z,28.1530,-82.8010,24.61,1111122 
COMPS,ioos:station:USF.COMPS:FHP:1,2016-11-01T15:00:00Z,28.1530,-82.8010,24.61,1111122 
COMPS,ioos:station:USF.COMPS:FHP:1,2016-11-01T15:06:00Z,28.1530,-82.8010,24.5,1111122 
COMPS,ioos:station:USF.COMPS:FHP:1,2016-11-01T15:12:00Z,28.1530,-82.8010,24.77,1111122 
COMPS,ioos:station:USF.COMPS:FHP:1,2016-11-01T15:18:00Z,28.1530,-82.8010,24.9,1111122 
COMPS,ioos:station:USF.COMPS:FHP:1,2016-11-01T15:24:00Z,28.1530,-82.8010,25.06,1111122 
COMPS,ioos:station:USF.COMPS:FHP:1,2016-11-01T15:30:00Z,28.1530,-82.8010,25.61,1111122 
COMPS,ioos:station:USF.COMPS:FHP:1,2016-11-01T15:36:00Z,28.1530,-82.8010,25.63,1111122 
COMPS,ioos:station:USF.COMPS:FHP:1,2016-11-01T15:42:00Z,28.1530,-82.8010,25.46,1111122 
COMPS,ioos:station:USF.COMPS:FHP:1,2016-11-01T15:48:00Z,28.1530,-82.8010,25.63,1111122 
COMPS,ioos:station:USF.COMPS:FHP:1,2016-11-01T15:54:00Z,28.1530,-82.8010,25.65,1111122 
COMPS,ioos:station:USF.COMPS:FHP:1,2016-11-01T16:00:00Z,28.1530,-82.8010,25.67,1111122 
COMPS,ioos:station:USF.COMPS:FHP:1,2016-11-01T16:06:00Z,28.1530,-82.8010,25.84,1111122 
COMPS,ioos:station:USF.COMPS:FHP:1,2016-11-01T16:12:00Z,28.1530,-82.8010,25.87,1111122 
COMPS,ioos:station:USF.COMPS:FHP:1,2016-11-01T16:18:00Z,28.1530,-82.8010,26.27,1111122 
COMPS,ioos:station:USF.COMPS:FHP:1,2016-11-01T16:24:00Z,28.1530,-82.8010,26.48,1111122 
COMPS,ioos:station:USF.COMPS:FHP:1,2016-11-01T16:30:00Z,28.1530,-82.8010,26.65,1111122 
COMPS,ioos:station:USF.COMPS:FHP:1,2016-11-01T16:36:00Z,28.1530,-82.8010,26.46,1111122 
COMPS,ioos:station:USF.COMPS:FHP:1,2016-11-01T16:42:00Z,28.1530,-82.8010,26.48,1111122 
COMPS,ioos:station:USF.COMPS:FHP:1,2016-11-01T16:48:00Z,28.1530,-82.8010,26.84,1111122 
COMPS,ioos:station:USF.COMPS:FHP:1,2016-11-01T16:54:00Z,28.1530,-82.8010,26.69,1111122 
COMPS,ioos:station:USF.COMPS:FHP:1,2016-11-01T17:00:00Z,28.1530,-82.8010,27.01,1111122 
COMPS,ioos:station:USF.COMPS:FHP:1,2016-11-01T17:06:00Z,28.1530,-82.8010,26.81,1111122 
COMPS,ioos:station:USF.COMPS:FHP:1,2016-11-01T17:12:00Z,28.1530,-82.8010,26.98,1111122 
COMPS,ioos:station:USF.COMPS:FHP:1,2016-11-01T17:18:00Z,28.1530,-82.8010,26.96,1111122 
COMPS,ioos:station:USF.COMPS:FHP:1,2016-11-01T17:24:00Z,28.1530,-82.8010,26.78,1111122 
COMPS,ioos:station:USF.COMPS:FHP:1,2016-11-01T17:30:00Z,28.1530,-82.8010,27.23,1111122 
COMPS,ioos:station:USF.COMPS:FHP:1,2016-11-01T17:36:00Z,28.1530,-82.8010,27.86,1111122 
COMPS,ioos:station:USF.COMPS:FHP:1,2016-11-01T17:42:00Z,28.1530,-82.8010,27.63,1111122 
COMPS,ioos:station:USF.COMPS:FHP:1,2016-11-01T17:48:00Z,28.1530,-82.8010,27.28,1111122 
COMPS,ioos:station:USF.COMPS:FHP:1,2016-11-01T17:54:00Z,28.1530,-82.8010,27.41,1111122 
COMPS,ioos:station:USF.COMPS:FHP:1,2016-11-01T18:00:00Z,28.1530,-82.8010,27.93,1111122 
COMPS,ioos:station:USF.COMPS:FHP:1,2016-11-01T18:06:00Z,28.1530,-82.8010,28.07,1111122 
COMPS,ioos:station:USF.COMPS:FHP:1,2016-11-01T18:12:00Z,28.1530,-82.8010,27.84,1111122 
COMPS,ioos:station:USF.COMPS:FHP:1,2016-11-01T18:18:00Z,28.1530,-82.8010,28.12,1111122 
COMPS,ioos:station:USF.COMPS:FHP:1,2016-11-01T18:24:00Z,28.1530,-82.8010,28.38,1111122 
COMPS,ioos:station:USF.COMPS:FHP:1,2016-11-01T18:30:00Z,28.1530,-82.8010,28.32,1111122 
COMPS,ioos:station:USF.COMPS:FHP:1,2016-11-01T18:36:00Z,28.1530,-82.8010,28.55,1111122 
COMPS,ioos:station:USF.COMPS:FHP:1,2016-11-01T18:42:00Z,28.1530,-82.8010,28.84,1111122 
COMPS,ioos:station:USF.COMPS:FHP:1,2016-11-01T18:48:00Z,28.1530,-82.8010,28.06,1111122 
COMPS,ioos:station:USF.COMPS:FHP:1,2016-11-01T18:54:00Z,28.1530,-82.8010,28.18,1111122 
COMPS,ioos:station:USF.COMPS:FHP:1,2016-11-01T19:00:00Z,28.1530,-82.8010,28.32,1111122 
COMPS,ioos:station:USF.COMPS:FHP:1,2016-11-01T19:06:00Z,28.1530,-82.8010,28.43,1111122 
COMPS,ioos:station:USF.COMPS:FHP:1,2016-11-01T19:12:00Z,28.1530,-82.8010,28.26,1111122 
COMPS,ioos:station:USF.COMPS:FHP:1,2016-11-01T19:18:00Z,28.1530,-82.8010,28.47,1111122 
COMPS,ioos:station:USF.COMPS:FHP:1,2016-11-01T19:24:00Z,28.1530,-82.8010,28.28,1111122 
COMPS,ioos:station:USF.COMPS:FHP:1,2016-11-01T19:30:00Z,28.1530,-82.8010,28.07,1111122 
COMPS,ioos:station:USF.COMPS:FHP:1,2016-11-01T19:36:00Z,28.1530,-82.8010,28.37,1111122 
COMPS,ioos:station:USF.COMPS:FHP:1,2016-11-01T19:42:00Z,28.1530,-82.8010,28.77,1111122 
COMPS,ioos:station:USF.COMPS:FHP:1,2016-11-01T19:48:00Z,28.1530,-82.8010,28.93,1111122 
COMPS,ioos:station:USF.COMPS:FHP:1,2016-11-01T19:54:00Z,28.1530,-82.8010,29.1,1111122 
COMPS,ioos:station:USF.COMPS:FHP:1,2016-11-01T20:00:00Z,28.1530,-82.8010,29.13,1111122 
COMPS,ioos:station:USF.COMPS:FHP:1,2016-11-01T20:06:00Z,28.1530,-82.8010,29.09,1111122 
COMPS,ioos:station:USF.COMPS:FHP:1,2016-11-01T20:12:00Z,28.1530,-82.8010,29.1,1111122 
COMPS,ioos:station:USF.COMPS:FHP:1,2016-11-01T20:18:00Z,28.1530,-82.8010,29.41,1111122 
COMPS,ioos:station:USF.COMPS:FHP:1,2016-11-01T20:24:00Z,28.1530,-82.8010,29.34,1111122 
COMPS,ioos:station:USF.COMPS:FHP:1,2016-11-01T20:30:00Z,28.1530,-82.8010,29.31,1111122 
COMPS,ioos:station:USF.COMPS:FHP:1,2016-11-01T20:36:00Z,28.1530,-82.8010,29.37,1111122 
COMPS,ioos:station:USF.COMPS:FHP:1,2016-11-01T20:42:00Z,28.1530,-82.8010,29.18,1111122 
COMPS,ioos:station:USF.COMPS:FHP:1,2016-11-01T20:48:00Z,28.1530,-82.8010,28.72,1111122 
COMPS,ioos:station:USF.COMPS:FHP:1,2016-11-01T20:54:00Z,28.1530,-82.8010,28.42,1111122 
COMPS,ioos:station:USF.COMPS:FHP:1,2016-11-01T21:00:00Z,28.1530,-82.8010,28.55,1111122 
COMPS,ioos:station:USF.COMPS:FHP:1,2016-11-01T21:06:00Z,28.1530,-82.8010,28.64,1111122 
COMPS,ioos:station:USF.COMPS:FHP:1,2016-11-01T21:12:00Z,28.1530,-82.8010,28.38,1111122 
COMPS,ioos:station:USF.COMPS:FHP:1,2016-11-01T21:18:00Z,28.1530,-82.8010,28.55,1111122 
COMPS,ioos:station:USF.COMPS:FHP:1,2016-11-01T21:24:00Z,28.1530,-82.8010,28.61,1111122 
COMPS,ioos:station:USF.COMPS:FHP:1,2016-11-01T21:30:00Z,28.1530,-82.8010,28.69,1111122 
COMPS,ioos:station:USF.COMPS:FHP:1,2016-11-01T21:36:00Z,28.1530,-82.8010,28.82,1111122 
COMPS,ioos:station:USF.COMPS:FHP:1,2016-11-01T21:42:00Z,28.1530,-82.8010,28.82,1111122 
COMPS,ioos:station:USF.COMPS:FHP:1,2016-11-01T21:48:00Z,28.1530,-82.8010,28.57,1111122 
COMPS,ioos:station:USF.COMPS:FHP:1,2016-11-01T21:54:00Z,28.1530,-82.8010,28.28,1111122 
COMPS,ioos:station:USF.COMPS:FHP:1,2016-11-01T22:00:00Z,28.1530,-82.8010,28.1,1111122 
COMPS,ioos:station:USF.COMPS:FHP:1,2016-11-01T22:06:00Z,28.1530,-82.8010,28.13,1111122 
COMPS,ioos:station:USF.COMPS:FHP:1,2016-11-01T22:12:00Z,28.1530,-82.8010,28.1,1111122 
COMPS,ioos:station:USF.COMPS:FHP:1,2016-11-01T22:18:00Z,28.1530,-82.8010,28.0,1111122 
COMPS,ioos:station:USF.COMPS:FHP:1,2016-11-01T22:24:00Z,28.1530,-82.8010,27.78,1111122 
COMPS,ioos:station:USF.COMPS:FHP:1,2016-11-01T22:30:00Z,28.1530,-82.8010,27.65,1111122 
COMPS,ioos:station:USF.COMPS:FHP:1,2016-11-01T22:36:00Z,28.1530,-82.8010,27.48,1111122 
COMPS,ioos:station:USF.COMPS:FHP:1,2016-11-01T22:42:00Z,28.1530,-82.8010,27.3,1111122 
COMPS,ioos:station:USF.COMPS:FHP:1,2016-11-01T22:48:00Z,28.1530,-82.8010,27.15,1111122 
COMPS,ioos:station:USF.COMPS:FHP:1,2016-11-01T22:54:00Z,28.1530,-82.8010,27.04,1111122 
COMPS,ioos:station:USF.COMPS:FHP:1,2016-11-01T23:00:00Z,28.1530,-82.8010,26.82,1111122 
COMPS,ioos:station:USF.COMPS:FHP:1,2016-11-01T23:06:00Z,28.1530,-82.8010,26.68,1111122 
COMPS,ioos:station:USF.COMPS:FHP:1,2016-11-01T23:12:00Z,28.1530,-82.8010,26.52,1111122 
COMPS,ioos:station:USF.COMPS:FHP:1,2016-11-01T23:18:00Z,28.1530,-82.8010,26.39,1111122 
COMPS,ioos:station:USF.COMPS:FHP:1,2016-11-01T23:24:00Z,28.1530,-82.8010,26.29,1111122 
COMPS,ioos:station:USF.COMPS:FHP:1,2016-11-01T23:30:00Z,28.1530,-82.8010,26.18,1111122 
COMPS,ioos:station:USF.COMPS:FHP:1,2016-11-01T23:36:00Z,28.1530,-82.8010,26.07,1111122 
COMPS,ioos:station:USF.COMPS:FHP:1,2016-11-01T23:42:00Z,28.1530,-82.8010,25.85,1111122 
COMPS,ioos:station:USF.COMPS:FHP:1,2016-11-01T23:48:00Z,28.1530,-82.8010,25.67,1111122 
COMPS,ioos:station:USF.COMPS:FHP:1,2016-11-01T23:54:00Z,28.1530,-82.8010,25.45,1111122 
COMPS,ioos:station:USF.COMPS:FHP:1,2016-11-02T00:00:00Z,28.1530,-82.8010,25.25,1111122 
COMPS,ioos:station:USF.COMPS:FHP:1,2016-11-02T00:06:00Z,28.1530,-82.8010,25.13,1111122 
COMPS,ioos:station:USF.COMPS:FHP:1,2016-11-02T00:12:00Z,28.1530,-82.8010,24.95,1111122 
COMPS,ioos:station:USF.COMPS:FHP:1,2016-11-02T00:18:00Z,28.1530,-82.8010,24.83,1111122 
COMPS,ioos:station:USF.COMPS:FHP:1,2016-11-02T00:24:00Z,28.1530,-82.8010,24.69,1111122 
COMPS,ioos:station:USF.COMPS:FHP:1,2016-11-02T00:30:00Z,28.1530,-82.8010,24.59,1111122 
COMPS,ioos:station:USF.COMPS:FHP:1,2016-11-02T00:36:00Z,28.1530,-82.8010,24.63,1111122 
COMPS,ioos:station:USF.COMPS:FHP:1,2016-11-02T00:42:00Z,28.1530,-82.8010,24.68,1111122 
COMPS,ioos:station:USF.COMPS:FHP:1,2016-11-02T00:48:00Z,28.1530,-82.8010,24.62,1111122 
COMPS,ioos:station:USF.COMPS:FHP:1,2016-11-02T00:54:00Z,28.1530,-82.8010,24.47,1111122 
COMPS,ioos:station:USF.COMPS:FHP:1,2016-11-02T01:00:00Z,28.1530,-82.8010,24.38,1111122 
COMPS,ioos:station:USF.COMPS:FHP:1,2016-11-02T01:06:00Z,28.1530,-82.8010,24.26,1111122 
COMPS,ioos:station:USF.COMPS:FHP:1,2016-11-02T01:12:00Z,28.1530,-82.8010,24.25,1111122 
COMPS,ioos:station:USF.COMPS:FHP:1,2016-11-02T01:18:00Z,28.1530,-82.8010,24.11,1111122 
COMPS,ioos:station:USF.COMPS:FHP:1,2016-11-02T01:24:00Z,28.1530,-82.8010,24.05,1111122 
COMPS,ioos:station:USF.COMPS:FHP:1,2016-11-02T01:30:00Z,28.1530,-82.8010,23.92,1111122 
COMPS,ioos:station:USF.COMPS:FHP:1,2016-11-02T01:36:00Z,28.1530,-82.8010,23.81,1111122 
COMPS,ioos:station:USF.COMPS:FHP:1,2016-11-02T01:42:00Z,28.1530,-82.8010,23.76,1111122 
COMPS,ioos:station:USF.COMPS:FHP:1,2016-11-02T01:48:00Z,28.1530,-82.8010,23.64,1111122 
COMPS,ioos:station:USF.COMPS:FHP:1,2016-11-02T01:54:00Z,28.1530,-82.8010,23.56,1111122 
COMPS,ioos:station:USF.COMPS:FHP:1,2016-11-02T02:00:00Z,28.1530,-82.8010,23.42,1111122 
COMPS,ioos:station:USF.COMPS:FHP:1,2016-11-02T02:06:00Z,28.1530,-82.8010,23.29,1111122 
COMPS,ioos:station:USF.COMPS:FHP:1,2016-11-02T02:12:00Z,28.1530,-82.8010,23.24,1111122 
COMPS,ioos:station:USF.COMPS:FHP:1,2016-11-02T02:18:00Z,28.1530,-82.8010,23.16,1111122 
COMPS,ioos:station:USF.COMPS:FHP:1,2016-11-02T02:24:00Z,28.1530,-82.8010,23.05,1111122 
COMPS,ioos:station:USF.COMPS:FHP:1,2016-11-02T02:30:00Z,28.1530,-82.8010,22.93,1111122 
COMPS,ioos:station:USF.COMPS:FHP:1,2016-11-02T02:36:00Z,28.1530,-82.8010,22.88,1111122 
COMPS,ioos:station:USF.COMPS:FHP:1,2016-11-02T02:42:00Z,28.1530,-82.8010,22.68,1111122 
COMPS,ioos:station:USF.COMPS:FHP:1,2016-11-02T02:48:00Z,28.1530,-82.8010,22.59,1111122 
COMPS,ioos:station:USF.COMPS:FHP:1,2016-11-02T02:54:00Z,28.1530,-82.8010,22.51,1111122 
COMPS,ioos:station:USF.COMPS:FHP:1,2016-11-02T03:00:00Z,28.1530,-82.8010,22.38,1111122 
COMPS,ioos:station:USF.COMPS:FHP:1,2016-11-02T03:06:00Z,28.1530,-82.8010,22.26,1111122 